Time,TemperatureF,DewpointF,PressureIn,WindDirection,WindDirectionDegrees,WindSpeedMPH,WindSpeedGustMPH,Humidity,HourlyPrecipIn,Conditions,Clouds,dailyrainin,SoftwareType,DateUTC
2013-10-29 00:01:00,48.3,41.4,29.86,SW,226,12.0,15.0,77,0.00,,---,0.00,VWS V14.01,2013-10-29 07:01:00,
2013-10-29 00:07:00,48.2,41.7,29.86,SSW,198,3.0,15.0,78,0.00,,---,0.00,VWS V14.01,2013-10-29 07:07:00,
2013-10-29 00:12:00,47.9,41.7,29.87,SW,225,1.0,15.0,79,0.00,,---,0.00,VWS V14.01,2013-10-29 07:12:00,
2013-10-29 00:17:00,47.8,41.9,29.87,SW,236,4.0,5.0,80,0.00,,---,0.00,VWS V14.01,2013-10-29 07:17:00,
2013-10-29 00:22:00,47.5,42.0,29.87,SW,233,5.0,10.0,81,0.00,,---,0.00,VWS V14.01,2013-10-29 07:22:00,
2013-10-29 00:27:00,47.3,42.1,29.87,WSW,238,0.0,10.0,82,0.00,,---,0.00,VWS V14.01,2013-10-29 07:27:00,
2013-10-29 00:32:00,47.1,42.2,29.87,SW,222,2.0,7.0,83,0.00,,---,0.00,VWS V14.01,2013-10-29 07:32:00,
2013-10-29 00:37:00,47.1,41.9,29.87,SSW,210,7.0,10.0,82,0.00,,---,0.00,VWS V14.01,2013-10-29 07:37:00,
2013-10-29 00:42:00,47.2,41.7,29.87,SW,215,9.0,12.0,81,0.00,,---,0.00,VWS V14.01,2013-10-29 07:42:00,
2013-10-29 00:47:00,47.1,41.6,29.86,South,174,9.0,11.0,81,0.00,,---,0.00,VWS V14.01,2013-10-29 07:47:00,
2013-10-29 00:52:00,46.9,41.7,29.86,SW,224,4.0,11.0,82,0.00,,---,0.00,VWS V14.01,2013-10-29 07:52:00,
2013-10-29 00:57:00,46.8,41.9,29.86,SW,219,1.0,12.0,83,0.00,,---,0.00,VWS V14.01,2013-10-29 07:57:00,
2013-10-29 01:02:00,46.8,41.9,29.87,SSW,205,4.0,7.0,83,0.00,,---,0.00,VWS V14.01,2013-10-29 08:02:00,
2013-10-29 01:07:00,46.8,41.9,29.87,SSW,205,9.0,9.0,83,0.00,,---,0.00,VWS V14.01,2013-10-29 08:07:00,
2013-10-29 01:12:00,46.8,41.9,29.86,South,172,2.0,9.0,83,0.00,,---,0.00,VWS V14.01,2013-10-29 08:12:00,
2013-10-29 01:17:00,46.8,41.9,29.86,South,186,6.0,7.0,83,0.00,,---,0.00,VWS V14.01,2013-10-29 08:17:00,
2013-10-29 01:22:00,46.9,42.0,29.86,South,177,4.0,10.0,83,0.00,,---,0.00,VWS V14.01,2013-10-29 08:22:00,
2013-10-29 01:27:00,46.9,42.0,29.86,SW,226,8.0,12.0,83,0.00,,---,0.00,VWS V14.01,2013-10-29 08:27:00,
2013-10-29 01:32:00,47.3,41.8,29.86,SSW,210,9.0,16.0,81,0.00,,---,0.00,VWS V14.01,2013-10-29 08:32:00,
2013-10-29 01:37:00,47.5,42.0,29.86,SSW,207,5.0,16.0,81,0.00,,---,0.00,VWS V14.01,2013-10-29 08:37:00,
2013-10-29 01:42:00,47.6,42.1,29.86,SW,222,5.0,16.0,81,0.00,,---,0.00,VWS V14.01,2013-10-29 08:42:00,
2013-10-29 01:47:00,47.5,42.0,29.86,South,170,9.0,14.0,81,0.00,,---,0.00,VWS V14.01,2013-10-29 08:47:00,
2013-10-29 01:52:00,47.5,42.3,29.86,SW,217,15.0,19.0,82,0.01,,---,0.01,VWS V14.01,2013-10-29 08:52:00,
2013-10-29 01:57:00,47.2,42.3,29.86,SSE,162,6.0,19.0,83,0.01,,---,0.01,VWS V14.01,2013-10-29 08:57:00,
2013-10-29 02:02:00,47.1,42.5,29.86,SW,219,5.0,15.0,84,0.01,,---,0.01,VWS V14.01,2013-10-29 09:02:00,
2013-10-29 02:07:00,46.9,42.3,29.86,SSW,193,4.0,15.0,84,0.02,,---,0.02,VWS V14.01,2013-10-29 09:07:00,
2013-10-29 02:12:00,47.0,42.4,29.86,SSW,198,14.0,15.0,84,0.02,,---,0.02,VWS V14.01,2013-10-29 09:12:00,
2013-10-29 02:17:00,47.3,42.1,29.86,South,190,5.0,11.0,82,0.02,,---,0.02,VWS V14.01,2013-10-29 09:17:00,
2013-10-29 02:22:00,47.3,42.1,29.87,SSW,204,8.0,12.0,82,0.02,,---,0.02,VWS V14.01,2013-10-29 09:22:00,
2013-10-29 02:27:00,47.5,41.7,29.86,SSW,203,3.0,15.0,80,0.02,,---,0.02,VWS V14.01,2013-10-29 09:27:00,
2013-10-29 02:32:00,47.6,41.8,29.86,SSW,193,11.0,15.0,80,0.02,,---,0.02,VWS V14.01,2013-10-29 09:32:00,
2013-10-29 02:37:00,47.6,41.8,29.86,SSW,212,10.0,15.0,80,0.02,,---,0.02,VWS V14.01,2013-10-29 09:37:00,
2013-10-29 02:42:00,47.7,41.8,29.86,South,172,8.0,15.0,80,0.02,,---,0.02,VWS V14.01,2013-10-29 09:42:00,
2013-10-29 02:47:00,47.7,41.8,29.86,WNW,290,5.0,7.0,80,0.02,,---,0.02,VWS V14.01,2013-10-29 09:47:00,
2013-10-29 02:52:00,47.6,41.8,29.86,WNW,291,3.0,7.0,80,0.02,,---,0.02,VWS V14.01,2013-10-29 09:52:00,
2013-10-29 02:57:00,47.4,41.5,29.86,West,273,2.0,7.0,80,0.02,,---,0.02,VWS V14.01,2013-10-29 09:57:00,
2013-10-29 03:02:00,47.3,41.5,29.86,NNW,327,1.0,4.0,80,0.01,,---,0.02,VWS V14.01,2013-10-29 10:02:00,
2013-10-29 03:07:00,47.1,41.6,29.86,SW,224,1.0,5.0,81,0.01,,---,0.02,VWS V14.01,2013-10-29 10:07:00,
2013-10-29 03:12:00,47.1,41.6,29.86,West,271,0.0,5.0,81,0.01,,---,0.02,VWS V14.01,2013-10-29 10:12:00,
2013-10-29 03:17:00,46.9,41.4,29.86,West,274,6.0,6.0,81,0.00,,---,0.02,VWS V14.01,2013-10-29 10:17:00,
2013-10-29 03:22:00,46.9,41.1,29.86,WNW,283,1.0,7.0,80,0.00,,---,0.02,VWS V14.01,2013-10-29 10:22:00,
2013-10-29 03:27:00,46.8,41.0,29.86,SW,233,8.0,8.0,80,0.00,,---,0.02,VWS V14.01,2013-10-29 10:27:00,
2013-10-29 03:32:00,46.8,41.0,29.86,West,265,5.0,10.0,80,0.00,,---,0.02,VWS V14.01,2013-10-29 10:32:00,
2013-10-29 03:37:00,46.8,40.6,29.86,WSW,246,4.0,10.0,79,0.00,,---,0.02,VWS V14.01,2013-10-29 10:37:00,
2013-10-29 03:42:00,46.7,40.5,29.86,SW,231,3.0,10.0,79,0.00,,---,0.02,VWS V14.01,2013-10-29 10:42:00,
2013-10-29 03:47:00,46.7,40.5,29.86,SW,224,0.0,5.0,79,0.00,,---,0.02,VWS V14.01,2013-10-29 10:47:00,
2013-10-29 03:52:00,46.8,40.3,29.85,SW,232,4.0,8.0,78,0.00,,---,0.02,VWS V14.01,2013-10-29 10:52:00,
2013-10-29 03:57:00,46.8,40.3,29.86,SW,228,3.0,13.0,78,0.00,,---,0.02,VWS V14.01,2013-10-29 10:57:00,
2013-10-29 04:02:00,46.7,40.2,29.86,WSW,238,3.0,7.0,78,0.00,,---,0.02,VWS V14.01,2013-10-29 11:02:00,
2013-10-29 04:07:00,46.7,40.2,29.86,WSW,238,2.0,7.0,78,0.00,,---,0.02,VWS V14.01,2013-10-29 11:07:00,
2013-10-29 04:12:00,46.5,40.0,29.86,West,259,1.0,7.0,78,0.00,,---,0.02,VWS V14.01,2013-10-29 11:12:00,
2013-10-29 04:17:00,46.5,40.0,29.86,WSW,238,3.0,10.0,78,0.00,,---,0.02,VWS V14.01,2013-10-29 11:17:00,
2013-10-29 04:22:00,46.6,40.1,29.86,WSW,243,0.0,10.0,78,0.00,,---,0.02,VWS V14.01,2013-10-29 11:22:00,
2013-10-29 04:27:00,46.6,40.1,29.86,WSW,240,4.0,10.0,78,0.00,,---,0.02,VWS V14.01,2013-10-29 11:27:00,
2013-10-29 04:32:00,46.7,39.9,29.86,SW,228,6.0,8.0,77,0.00,,---,0.02,VWS V14.01,2013-10-29 11:32:00,
2013-10-29 04:37:00,46.6,40.1,29.86,WNW,300,1.0,8.0,78,0.00,,---,0.02,VWS V14.01,2013-10-29 11:37:00,
2013-10-29 04:42:00,46.5,40.0,29.86,SSW,209,4.0,8.0,78,0.00,,---,0.02,VWS V14.01,2013-10-29 11:42:00,
2013-10-29 04:47:00,46.5,40.0,29.86,WNW,290,4.0,9.0,78,0.00,,---,0.02,VWS V14.01,2013-10-29 11:47:00,
2013-10-29 04:52:00,46.5,39.7,29.86,WNW,299,1.0,10.0,77,0.00,,---,0.02,VWS V14.01,2013-10-29 11:52:00,
2013-10-29 04:57:00,46.3,39.8,29.86,West,275,1.0,10.0,78,0.00,,---,0.02,VWS V14.01,2013-10-29 11:57:00,
2013-10-29 05:02:00,46.1,39.6,29.87,NW,309,0.0,3.0,78,0.00,,---,0.02,VWS V14.01,2013-10-29 12:02:00,
2013-10-29 05:07:00,45.8,40.0,29.87,WNW,294,3.0,4.0,80,0.00,,---,0.02,VWS V14.01,2013-10-29 12:07:00,
2013-10-29 05:12:00,45.7,39.9,29.87,WNW,298,5.0,6.0,80,0.00,,---,0.02,VWS V14.01,2013-10-29 12:12:00,
2013-10-29 05:17:00,45.8,40.0,29.88,WSW,249,2.0,9.0,80,0.00,,---,0.02,VWS V14.01,2013-10-29 12:17:00,
2013-10-29 05:22:00,46.0,40.2,29.88,WSW,253,9.0,12.0,80,0.00,,---,0.02,VWS V14.01,2013-10-29 12:22:00,
2013-10-29 05:27:00,46.2,40.1,29.87,SW,217,4.0,12.0,79,0.00,,---,0.02,VWS V14.01,2013-10-29 12:27:00,
2013-10-29 05:32:00,46.2,40.1,29.88,SW,236,4.0,10.0,79,0.00,,---,0.02,VWS V14.01,2013-10-29 12:32:00,
2013-10-29 05:37:00,46.1,40.0,29.87,SSW,211,4.0,10.0,79,0.00,,---,0.02,VWS V14.01,2013-10-29 12:37:00,
2013-10-29 05:42:00,46.0,40.2,29.88,SW,221,4.0,10.0,80,0.00,,---,0.02,VWS V14.01,2013-10-29 12:42:00,
2013-10-29 05:47:00,46.2,40.1,29.87,WSW,252,3.0,9.0,79,0.00,,---,0.02,VWS V14.01,2013-10-29 12:47:00,
2013-10-29 05:52:00,46.3,40.2,29.87,South,184,3.0,11.0,79,0.00,,---,0.02,VWS V14.01,2013-10-29 12:52:00,
2013-10-29 05:57:00,46.3,40.2,29.87,SW,228,7.0,13.0,79,0.00,,---,0.02,VWS V14.01,2013-10-29 12:57:00,
2013-10-29 06:02:00,46.3,40.2,29.87,SSW,212,7.0,13.0,79,0.00,,---,0.02,VWS V14.01,2013-10-29 13:02:00,
2013-10-29 06:07:00,46.4,40.2,29.87,South,184,2.0,13.0,79,0.00,,---,0.02,VWS V14.01,2013-10-29 13:07:00,
2013-10-29 06:12:00,46.4,39.9,29.87,SW,231,7.0,13.0,78,0.00,,---,0.02,VWS V14.01,2013-10-29 13:12:00,
2013-10-29 06:17:00,46.4,39.9,29.88,SSW,205,5.0,10.0,78,0.00,,---,0.02,VWS V14.01,2013-10-29 13:17:00,
2013-10-29 06:22:00,46.5,39.7,29.87,SW,233,6.0,14.0,77,0.00,,---,0.02,VWS V14.01,2013-10-29 13:22:00,
2013-10-29 06:27:00,46.4,39.9,29.88,SW,215,2.0,14.0,78,0.00,,---,0.02,VWS V14.01,2013-10-29 13:27:00,
2013-10-29 06:33:00,46.4,39.9,29.88,SW,229,5.0,13.0,78,0.00,,---,0.02,VWS V14.01,2013-10-29 13:33:00,
2013-10-29 06:38:00,46.3,39.8,29.88,West,261,5.0,13.0,78,0.00,,---,0.02,VWS V14.01,2013-10-29 13:38:00,
2013-10-29 06:43:00,46.4,39.9,29.89,WSW,238,3.0,13.0,78,0.00,,---,0.02,VWS V14.01,2013-10-29 13:43:00,
2013-10-29 06:48:00,46.3,39.8,29.88,SW,231,0.0,9.0,78,0.00,,---,0.02,VWS V14.01,2013-10-29 13:48:00,
2013-10-29 06:53:00,46.2,39.7,29.89,SW,233,3.0,9.0,78,0.00,,---,0.02,VWS V14.01,2013-10-29 13:53:00,
2013-10-29 06:58:00,46.4,39.9,29.89,SW,215,8.0,12.0,78,0.00,,---,0.02,VWS V14.01,2013-10-29 13:58:00,
2013-10-29 07:03:00,46.4,39.9,29.89,WSW,238,10.0,11.0,78,0.00,,---,0.02,VWS V14.01,2013-10-29 14:03:00,
2013-10-29 07:08:00,46.4,39.9,29.89,South,176,0.0,11.0,78,0.00,,---,0.02,VWS V14.01,2013-10-29 14:08:00,
2013-10-29 07:13:00,46.3,40.2,29.89,SE,145,1.0,11.0,79,0.00,,---,0.02,VWS V14.01,2013-10-29 14:13:00,
2013-10-29 07:18:00,46.3,40.2,29.89,WSW,256,6.0,10.0,79,0.00,,---,0.02,VWS V14.01,2013-10-29 14:18:00,
2013-10-29 07:23:00,46.4,39.9,29.89,SSW,212,4.0,11.0,78,0.00,,---,0.02,VWS V14.01,2013-10-29 14:23:00,
2013-10-29 07:28:00,46.5,40.0,29.89,South,191,9.0,13.0,78,0.00,,---,0.02,VWS V14.01,2013-10-29 14:28:00,
2013-10-29 07:33:00,46.6,40.1,29.90,SSW,209,11.0,12.0,78,0.00,,---,0.02,VWS V14.01,2013-10-29 14:33:00,
2013-10-29 07:38:00,46.6,40.1,29.90,SW,231,6.0,12.0,78,0.00,,---,0.02,VWS V14.01,2013-10-29 14:38:00,
2013-10-29 07:43:00,46.9,39.7,29.90,SSW,210,1.0,12.0,76,0.00,,---,0.02,VWS V14.01,2013-10-29 14:43:00,
2013-10-29 07:48:00,47.2,39.7,29.90,SW,228,6.0,7.0,75,0.00,,---,0.02,VWS V14.01,2013-10-29 14:48:00,
2013-10-29 07:53:00,47.3,39.8,29.90,SW,219,5.0,10.0,75,0.00,,---,0.02,VWS V14.01,2013-10-29 14:53:00,
2013-10-29 07:58:00,47.6,39.7,29.90,WSW,240,7.0,11.0,74,0.00,,---,0.02,VWS V14.01,2013-10-29 14:58:00,
2013-10-29 08:03:00,47.9,39.7,29.90,SSW,212,11.0,11.0,73,0.00,,---,0.02,VWS V14.01,2013-10-29 15:03:00,
2013-10-29 08:08:00,48.3,39.3,29.90,SSW,205,2.0,11.0,71,0.00,,---,0.02,VWS V14.01,2013-10-29 15:08:00,
2013-10-29 08:13:00,48.5,39.5,29.90,SW,217,7.0,11.0,71,0.00,,---,0.02,VWS V14.01,2013-10-29 15:13:00,
2013-10-29 08:18:00,48.8,39.1,29.90,SSW,201,5.0,10.0,69,0.00,,---,0.02,VWS V14.01,2013-10-29 15:18:00,
2013-10-29 08:23:00,49.1,39.4,29.91,WSW,240,3.0,10.0,69,0.00,,---,0.02,VWS V14.01,2013-10-29 15:23:00,
2013-10-29 08:28:00,49.3,39.6,29.91,WSW,250,1.0,10.0,69,0.00,,---,0.02,VWS V14.01,2013-10-29 15:28:00,
2013-10-29 08:33:00,49.6,38.7,29.91,West,278,10.0,13.0,66,0.00,,---,0.02,VWS V14.01,2013-10-29 15:33:00,
2013-10-29 08:38:00,50.0,38.3,29.91,West,263,6.0,13.0,64,0.00,,---,0.02,VWS V14.01,2013-10-29 15:38:00,
2013-10-29 08:43:00,50.3,38.6,29.91,SSW,212,4.0,13.0,64,0.00,,---,0.02,VWS V14.01,2013-10-29 15:43:00,
2013-10-29 08:48:00,50.3,39.0,29.91,SW,216,3.0,10.0,65,0.00,,---,0.02,VWS V14.01,2013-10-29 15:48:00,
2013-10-29 08:53:00,50.5,39.6,29.91,SW,219,1.0,10.0,66,0.00,,---,0.02,VWS V14.01,2013-10-29 15:53:00,
2013-10-29 08:58:00,50.8,39.9,29.91,WSW,249,4.0,10.0,66,0.00,,---,0.02,VWS V14.01,2013-10-29 15:58:00,
2013-10-29 09:03:00,51.1,39.4,29.91,SSW,212,2.0,10.0,64,0.00,,---,0.02,VWS V14.01,2013-10-29 16:03:00,
2013-10-29 09:08:00,51.3,38.7,29.91,WSW,250,5.0,10.0,62,0.00,,---,0.02,VWS V14.01,2013-10-29 16:08:00,
2013-10-29 09:13:00,51.4,38.4,29.91,SSW,212,5.0,10.0,61,0.00,,---,0.02,VWS V14.01,2013-10-29 16:13:00,
2013-10-29 09:18:00,51.6,39.0,29.92,WSW,256,10.0,10.0,62,0.00,,---,0.02,VWS V14.01,2013-10-29 16:18:00,
2013-10-29 09:23:00,51.8,38.8,29.92,West,259,11.0,16.0,61,0.00,,---,0.02,VWS V14.01,2013-10-29 16:23:00,
2013-10-29 09:28:00,52.0,38.1,29.92,WSW,252,10.0,16.0,59,0.00,,---,0.02,VWS V14.01,2013-10-29 16:28:00,
2013-10-29 09:33:00,52.2,38.8,29.92,SW,218,7.0,11.0,60,0.00,,---,0.02,VWS V14.01,2013-10-29 16:33:00,
2013-10-29 09:38:00,52.5,38.6,29.92,WNW,291,3.0,14.0,59,0.00,,---,0.02,VWS V14.01,2013-10-29 16:38:00,
2013-10-29 09:43:00,52.8,38.5,29.92,West,259,5.0,14.0,58,0.00,,---,0.02,VWS V14.01,2013-10-29 16:43:00,
2013-10-29 09:48:00,52.7,38.8,29.92,SW,221,11.0,15.0,59,0.00,,---,0.02,VWS V14.01,2013-10-29 16:48:00,
2013-10-29 09:53:00,52.7,38.3,29.92,WNW,284,5.0,17.0,58,0.00,,---,0.02,VWS V14.01,2013-10-29 16:53:00,
2013-10-29 09:58:00,53.2,38.8,29.92,SW,229,4.0,17.0,58,0.00,,---,0.02,VWS V14.01,2013-10-29 16:58:00,
2013-10-29 10:03:00,53.1,38.7,29.92,West,266,7.0,16.0,58,0.00,,---,0.02,VWS V14.01,2013-10-29 17:03:00,
2013-10-29 10:08:00,53.3,38.9,29.92,WSW,243,11.0,16.0,58,0.00,,---,0.02,VWS V14.01,2013-10-29 17:08:00,
2013-10-29 10:13:00,53.5,39.1,29.92,SW,216,7.0,16.0,58,0.00,,---,0.02,VWS V14.01,2013-10-29 17:13:00,
2013-10-29 10:18:00,53.7,39.3,29.92,SW,228,6.0,11.0,58,0.00,,---,0.02,VWS V14.01,2013-10-29 17:18:00,
2013-10-29 10:23:00,53.8,38.9,29.92,SSW,207,5.0,13.0,57,0.00,,---,0.02,VWS V14.01,2013-10-29 17:23:00,
2013-10-29 10:28:00,53.5,39.1,29.92,WSW,257,4.0,13.0,58,0.00,,---,0.02,VWS V14.01,2013-10-29 17:28:00,
2013-10-29 10:33:00,53.2,38.8,29.92,SW,229,10.0,13.0,58,0.00,,---,0.02,VWS V14.01,2013-10-29 17:33:00,
2013-10-29 10:38:00,53.0,39.1,29.92,SW,222,9.0,13.0,59,0.00,,---,0.02,VWS V14.01,2013-10-29 17:38:00,
2013-10-29 10:43:00,52.9,39.0,29.92,WSW,250,2.0,13.0,59,0.00,,---,0.02,VWS V14.01,2013-10-29 17:43:00,
2013-10-29 10:48:00,52.9,39.0,29.92,SSW,199,5.0,13.0,59,0.00,,---,0.02,VWS V14.01,2013-10-29 17:48:00,
2013-10-29 10:53:00,53.0,39.1,29.92,West,275,10.0,13.0,59,0.00,,---,0.02,VWS V14.01,2013-10-29 17:53:00,
2013-10-29 10:58:00,53.0,39.1,29.92,WSW,247,11.0,13.0,59,0.00,,---,0.02,VWS V14.01,2013-10-29 17:58:00,
2013-10-29 11:03:00,53.0,38.6,29.92,West,278,7.0,17.0,58,0.00,,---,0.02,VWS V14.01,2013-10-29 18:03:00,
2013-10-29 11:08:00,52.8,38.9,29.92,WNW,286,9.0,17.0,59,0.00,,---,0.02,VWS V14.01,2013-10-29 18:08:00,
2013-10-29 11:13:00,53.5,40.0,29.92,West,267,7.0,17.0,60,0.00,,---,0.02,VWS V14.01,2013-10-29 18:13:00,
2013-10-29 11:18:00,53.8,39.8,29.92,WNW,291,9.0,12.0,59,0.00,,---,0.02,VWS V14.01,2013-10-29 18:18:00,
2013-10-29 11:23:00,54.0,40.0,29.92,West,264,9.0,13.0,59,0.00,,---,0.02,VWS V14.01,2013-10-29 18:23:00,
2013-10-29 11:28:00,54.5,40.5,29.92,SW,231,10.0,13.0,59,0.00,,---,0.02,VWS V14.01,2013-10-29 18:28:00,
2013-10-29 11:33:00,54.5,40.0,29.92,WSW,252,5.0,11.0,58,0.00,,---,0.02,VWS V14.01,2013-10-29 18:33:00,
2013-10-29 11:38:00,54.6,39.7,29.92,SW,225,6.0,11.0,57,0.00,,---,0.02,VWS V14.01,2013-10-29 18:38:00,
2013-10-29 11:43:00,54.5,40.0,29.92,West,277,8.0,13.0,58,0.00,,---,0.02,VWS V14.01,2013-10-29 18:43:00,
2013-10-29 11:48:00,54.5,40.0,29.92,WNW,282,6.0,9.0,58,0.00,,---,0.02,VWS V14.01,2013-10-29 18:48:00,
2013-10-29 11:53:00,54.3,39.4,29.92,SW,225,10.0,10.0,57,0.00,,---,0.02,VWS V14.01,2013-10-29 18:53:00,
2013-10-29 11:58:00,54.3,39.8,29.92,WNW,287,4.0,10.0,58,0.00,,---,0.02,VWS V14.01,2013-10-29 18:58:00,
2013-10-29 12:03:00,54.9,40.0,29.91,SW,228,8.0,11.0,57,0.00,,---,0.02,VWS V14.01,2013-10-29 19:03:00,
2013-10-29 12:08:00,55.5,40.1,29.91,West,281,6.0,11.0,56,0.00,,---,0.02,VWS V14.01,2013-10-29 19:08:00,
2013-10-29 12:13:00,55.4,40.4,29.91,SW,224,0.0,11.0,57,0.00,,---,0.02,VWS V14.01,2013-10-29 19:13:00,
2013-10-29 12:18:00,55.9,40.0,29.91,SSW,207,6.0,10.0,55,0.00,,---,0.02,VWS V14.01,2013-10-29 19:18:00,
2013-10-29 12:23:00,55.7,39.8,29.91,WSW,242,3.0,12.0,55,0.00,,---,0.02,VWS V14.01,2013-10-29 19:23:00,
2013-10-29 12:28:00,55.6,39.7,29.91,WNW,294,7.0,12.0,55,0.00,,---,0.02,VWS V14.01,2013-10-29 19:28:00,
2013-10-29 12:33:00,55.4,39.0,29.91,SSW,205,9.0,15.0,54,0.00,,---,0.02,VWS V14.01,2013-10-29 19:33:00,
2013-10-29 12:38:00,55.5,39.1,29.91,WNW,286,7.0,15.0,54,0.00,,---,0.02,VWS V14.01,2013-10-29 19:38:00,
2013-10-29 12:43:00,55.4,38.6,29.91,WSW,250,8.0,15.0,53,0.00,,---,0.02,VWS V14.01,2013-10-29 19:43:00,
2013-10-29 12:48:00,55.3,39.4,29.91,WNW,293,4.0,13.0,55,0.00,,---,0.02,VWS V14.01,2013-10-29 19:48:00,
2013-10-29 12:53:00,55.1,39.2,29.91,WNW,283,9.0,17.0,55,0.00,,---,0.02,VWS V14.01,2013-10-29 19:53:00,
2013-10-29 12:58:00,54.9,39.0,29.90,WSW,248,10.0,17.0,55,0.00,,---,0.02,VWS V14.01,2013-10-29 19:58:00,
2013-10-29 13:04:00,54.7,38.9,29.90,NW,304,10.0,15.0,55,0.00,,---,0.02,VWS V14.01,2013-10-29 20:04:00,
2013-10-29 13:09:00,54.8,39.4,29.89,WNW,297,6.0,15.0,56,0.00,,---,0.02,VWS V14.01,2013-10-29 20:09:00,
2013-10-29 13:14:00,55.2,39.3,29.89,NW,317,6.0,15.0,55,0.00,,---,0.02,VWS V14.01,2013-10-29 20:14:00,
2013-10-29 13:19:00,55.4,39.5,29.89,WNW,285,7.0,12.0,55,0.00,,---,0.02,VWS V14.01,2013-10-29 20:19:00,
2013-10-29 13:24:00,56.1,38.7,29.89,WNW,283,8.0,15.0,52,0.00,,---,0.02,VWS V14.01,2013-10-29 20:24:00,
2013-10-29 13:29:00,57.1,39.7,29.89,West,275,7.0,15.0,52,0.00,,---,0.02,VWS V14.01,2013-10-29 20:29:00,
2013-10-29 13:34:00,57.5,39.5,29.88,SW,228,12.0,13.0,51,0.00,,---,0.02,VWS V14.01,2013-10-29 20:34:00,
2013-10-29 13:39:00,57.6,40.1,29.88,SW,214,8.0,14.0,52,0.00,,---,0.02,VWS V14.01,2013-10-29 20:39:00,
2013-10-29 13:44:00,57.8,38.8,29.88,South,184,1.0,5.0,49,0.00,,---,0.02,VWS V14.01,2013-10-29 20:44:00,
2013-10-29 13:49:00,57.7,40.2,29.88,SSW,212,10.0,10.0,52,0.00,,---,0.02,VWS V14.01,2013-10-29 20:49:00,
2013-10-29 13:54:00,58.1,40.1,29.88,West,260,1.0,12.0,51,0.00,,---,0.02,VWS V14.01,2013-10-29 20:54:00,
2013-10-29 13:59:00,58.2,39.7,29.88,WSW,243,9.0,9.0,50,0.00,,---,0.02,VWS V14.01,2013-10-29 20:59:00,
2013-10-29 14:04:00,57.6,40.1,29.88,SSW,196,7.0,15.0,52,0.00,,---,0.02,VWS V14.01,2013-10-29 21:04:00,
2013-10-29 14:09:00,57.2,39.2,29.87,SW,215,13.0,17.0,51,0.00,,---,0.02,VWS V14.01,2013-10-29 21:09:00,
2013-10-29 14:14:00,57.0,40.1,29.88,SSW,208,9.0,12.0,53,0.00,,---,0.02,VWS V14.01,2013-10-29 21:14:00,
2013-10-29 14:19:00,56.7,39.3,29.87,SW,222,4.0,18.0,52,0.00,,---,0.02,VWS V14.01,2013-10-29 21:19:00,
2013-10-29 14:24:00,57.0,40.1,29.87,SW,228,13.0,18.0,53,0.00,,---,0.02,VWS V14.01,2013-10-29 21:24:00,
2013-10-29 14:29:00,56.9,39.5,29.87,South,177,4.0,10.0,52,0.00,,---,0.02,VWS V14.01,2013-10-29 21:29:00,
2013-10-29 14:34:00,57.0,39.6,29.88,SW,222,12.0,15.0,52,0.00,,---,0.02,VWS V14.01,2013-10-29 21:34:00,
2013-10-29 14:39:00,56.6,39.7,29.88,South,190,15.0,16.0,53,0.00,,---,0.02,VWS V14.01,2013-10-29 21:39:00,
2013-10-29 14:44:00,56.3,39.4,29.88,SW,231,18.0,18.0,53,0.00,,---,0.02,VWS V14.01,2013-10-29 21:44:00,
2013-10-29 14:49:00,56.3,39.4,29.88,SSW,200,12.0,18.0,53,0.00,,---,0.02,VWS V14.01,2013-10-29 21:49:00,
2013-10-29 14:54:00,56.1,39.2,29.88,SW,214,12.0,18.0,53,0.00,,---,0.02,VWS V14.01,2013-10-29 21:54:00,
2013-10-29 14:59:00,55.9,39.0,29.88,SSW,205,8.0,12.0,53,0.00,,---,0.02,VWS V14.01,2013-10-29 21:59:00,
2013-10-29 17:15:00,55.9,42.2,29.90,West,270,4.0,10.0,60,0.00,,---,0.02,VWS V14.01,2013-10-30 00:15:00,
2013-10-29 17:42:00,54.6,41.4,29.91,WSW,238,3.0,4.0,61,0.00,,---,0.02,VWS V14.01,2013-10-30 00:42:00,
2013-10-29 17:47:00,54.5,40.9,29.91,WNW,300,7.0,13.0,60,0.00,,---,0.02,VWS V14.01,2013-10-30 00:47:00,
2013-10-29 17:52:00,54.4,41.2,29.91,West,263,6.0,13.0,61,0.00,,---,0.02,VWS V14.01,2013-10-30 00:52:00,
2013-10-29 17:57:00,54.3,41.6,29.91,WNW,302,5.0,13.0,62,0.00,,---,0.02,VWS V14.01,2013-10-30 00:57:00,
2013-10-29 18:02:00,54.2,41.5,29.91,WSW,248,3.0,9.0,62,0.00,,---,0.02,VWS V14.01,2013-10-30 01:02:00,
2013-10-29 18:07:00,54.2,41.5,29.91,WNW,288,2.0,9.0,62,0.00,,---,0.02,VWS V14.01,2013-10-30 01:07:00,
2013-10-29 18:12:00,54.2,41.5,29.91,WSW,252,2.0,9.0,62,0.00,,---,0.02,VWS V14.01,2013-10-30 01:12:00,
2013-10-29 18:17:00,54.1,41.4,29.92,SW,231,6.0,9.0,62,0.00,,---,0.02,VWS V14.01,2013-10-30 01:17:00,
2013-10-29 18:22:00,54.0,41.3,29.92,WSW,240,4.0,9.0,62,0.00,,---,0.02,VWS V14.01,2013-10-30 01:22:00,
2013-10-29 18:27:00,53.9,41.6,29.92,WSW,252,6.0,9.0,63,0.00,,---,0.02,VWS V14.01,2013-10-30 01:27:00,
2013-10-29 18:32:00,53.8,41.9,29.92,West,259,5.0,6.0,64,0.00,,---,0.02,VWS V14.01,2013-10-30 01:32:00,
2013-10-29 18:37:00,53.7,42.2,29.92,WNW,284,3.0,6.0,65,0.00,,---,0.02,VWS V14.01,2013-10-30 01:37:00,
2013-10-29 18:42:00,53.6,42.5,29.92,West,267,3.0,6.0,66,0.00,,---,0.02,VWS V14.01,2013-10-30 01:42:00,
2013-10-29 18:47:00,53.4,42.3,29.92,WSW,250,0.0,8.0,66,0.00,,---,0.02,VWS V14.01,2013-10-30 01:47:00,
2013-10-29 18:52:00,53.3,42.2,29.92,West,276,3.0,8.0,66,0.00,,---,0.02,VWS V14.01,2013-10-30 01:52:00,
2013-10-29 18:57:00,53.1,42.1,29.93,West,267,1.0,8.0,66,0.00,,---,0.02,VWS V14.01,2013-10-30 01:57:00,
2013-10-29 19:02:00,53.0,42.3,29.93,West,275,3.0,5.0,67,0.00,,---,0.02,VWS V14.01,2013-10-30 02:02:00,
2013-10-29 19:07:00,52.8,42.2,29.93,SW,236,5.0,7.0,67,0.00,,---,0.02,VWS V14.01,2013-10-30 02:07:00,
2013-10-29 19:12:00,52.7,42.1,29.93,SW,214,7.0,9.0,67,0.00,,---,0.02,VWS V14.01,2013-10-30 02:12:00,
2013-10-29 19:17:00,52.6,42.3,29.93,WSW,253,0.0,6.0,68,0.00,,---,0.02,VWS V14.01,2013-10-30 02:17:00,
2013-10-29 19:22:00,52.3,42.5,29.93,SW,217,2.0,6.0,69,0.00,,---,0.02,VWS V14.01,2013-10-30 02:22:00,
2013-10-29 19:27:00,52.0,42.2,29.93,SW,221,2.0,6.0,69,0.00,,---,0.02,VWS V14.01,2013-10-30 02:27:00,
2013-10-29 19:32:00,51.8,42.3,29.93,WSW,250,0.0,4.0,70,0.00,,---,0.02,VWS V14.01,2013-10-30 02:32:00,
2013-10-29 19:37:00,51.6,42.2,29.93,West,278,3.0,4.0,70,0.00,,---,0.02,VWS V14.01,2013-10-30 02:37:00,
2013-10-29 19:42:00,51.6,42.2,29.94,West,281,3.0,6.0,70,0.00,,---,0.02,VWS V14.01,2013-10-30 02:42:00,
2013-10-29 19:47:00,51.6,42.2,29.94,WNW,289,2.0,3.0,70,0.00,,---,0.02,VWS V14.01,2013-10-30 02:47:00,
2013-10-29 19:52:00,51.6,41.8,29.94,West,278,2.0,4.0,69,0.00,,---,0.02,VWS V14.01,2013-10-30 02:52:00,
2013-10-29 19:57:00,51.7,41.9,29.94,WSW,253,2.0,5.0,69,0.00,,---,0.02,VWS V14.01,2013-10-30 02:57:00,
2013-10-29 20:02:00,51.6,41.8,29.94,WNW,300,1.0,3.0,69,0.00,,---,0.02,VWS V14.01,2013-10-30 03:02:00,
2013-10-29 20:07:00,51.4,41.6,29.94,WNW,296,2.0,3.0,69,0.00,,---,0.02,VWS V14.01,2013-10-30 03:07:00,
2013-10-29 20:13:00,51.2,41.4,29.94,West,281,4.0,6.0,69,0.00,,---,0.02,VWS V14.01,2013-10-30 03:13:00,
2013-10-29 20:18:00,51.2,41.4,29.93,SW,228,5.0,8.0,69,0.00,,---,0.02,VWS V14.01,2013-10-30 03:18:00,
2013-10-29 20:23:00,51.0,41.2,29.93,West,274,6.0,11.0,69,0.00,,---,0.02,VWS V14.01,2013-10-30 03:23:00,
2013-10-29 20:28:00,51.2,40.6,29.93,WNW,290,4.0,13.0,67,0.00,,---,0.02,VWS V14.01,2013-10-30 03:28:00,
2013-10-29 20:33:00,51.5,40.5,29.93,WNW,287,3.0,13.0,66,0.00,,---,0.02,VWS V14.01,2013-10-30 03:33:00,
2013-10-29 20:38:00,51.7,40.3,29.93,WNW,284,10.0,13.0,65,0.00,,---,0.02,VWS V14.01,2013-10-30 03:38:00,
2013-10-29 20:43:00,51.8,40.0,29.93,WSW,245,7.0,13.0,64,0.00,,---,0.02,VWS V14.01,2013-10-30 03:43:00,
2013-10-29 20:48:00,51.8,39.6,29.93,West,259,3.0,11.0,63,0.00,,---,0.02,VWS V14.01,2013-10-30 03:48:00,
2013-10-29 20:53:00,51.8,39.6,29.93,West,264,6.0,11.0,63,0.00,,---,0.02,VWS V14.01,2013-10-30 03:53:00,
2013-10-29 20:58:00,51.8,39.6,29.93,West,259,5.0,11.0,63,0.00,,---,0.02,VWS V14.01,2013-10-30 03:58:00,
2013-10-29 21:01:00,51.8,39.6,29.93,West,278,6.0,8.0,63,0.00,,---,0.02,VWS V14.01,2013-10-30 04:01:00,
2013-10-29 21:02:00,51.8,39.6,29.93,SSW,195,2.0,10.0,63,0.00,,---,0.02,VWS V14.01,2013-10-30 04:02:00,
2013-10-29 21:03:00,51.8,39.2,29.93,WSW,238,4.0,10.0,62,0.00,,---,0.02,VWS V14.01,2013-10-30 04:03:00,
2013-10-29 21:05:00,51.8,39.2,29.93,West,270,0.0,11.0,62,0.00,,---,0.02,VWS V14.01,2013-10-30 04:05:00,
2013-10-29 21:10:00,52.0,39.0,29.94,SW,233,4.0,11.0,61,0.00,,---,0.02,VWS V14.01,2013-10-30 04:10:00,
2013-10-29 21:13:00,52.0,38.6,29.94,SW,221,2.0,11.0,60,0.00,,---,0.02,VWS V14.01,2013-10-30 04:13:00,
2013-10-29 21:14:00,52.0,38.6,29.94,WSW,240,2.0,6.0,60,0.00,,---,0.02,VWS V14.01,2013-10-30 04:14:00,
2013-10-29 21:19:00,52.1,38.7,29.94,WSW,240,5.0,13.0,60,0.00,,---,0.02,VWS V14.01,2013-10-30 04:19:00,
2013-10-29 21:24:00,52.1,38.7,29.94,SW,219,3.0,13.0,60,0.00,,---,0.02,VWS V14.01,2013-10-30 04:24:00,
2013-10-29 21:29:00,52.1,38.7,29.94,SW,222,2.0,4.0,60,0.00,,---,0.02,VWS V14.01,2013-10-30 04:29:00,
2013-10-29 21:34:00,51.8,39.6,29.95,South,191,3.0,5.0,63,0.00,,---,0.02,VWS V14.01,2013-10-30 04:34:00,
2013-10-29 21:39:00,51.1,39.8,29.95,SW,228,4.0,8.0,65,0.00,,---,0.02,VWS V14.01,2013-10-30 04:39:00,
2013-10-29 21:44:00,50.9,40.0,29.95,SW,229,7.0,7.0,66,0.00,,---,0.02,VWS V14.01,2013-10-30 04:44:00,
2013-10-29 21:49:00,50.9,39.6,29.95,SW,229,0.0,8.0,65,0.00,,---,0.02,VWS V14.01,2013-10-30 04:49:00,
2013-10-29 21:54:00,50.9,39.6,29.95,SW,231,4.0,8.0,65,0.00,,---,0.02,VWS V14.01,2013-10-30 04:54:00,
2013-10-29 21:59:00,51.2,39.5,29.95,SSW,209,2.0,2.0,64,0.00,,---,0.02,VWS V14.01,2013-10-30 04:59:00,
2013-10-29 22:04:00,51.2,39.0,29.95,WSW,245,9.0,10.0,63,0.00,,---,0.02,VWS V14.01,2013-10-30 05:04:00,
2013-10-29 22:09:00,51.4,38.8,29.95,West,280,5.0,10.0,62,0.00,,---,0.02,VWS V14.01,2013-10-30 05:09:00,
2013-10-29 22:14:00,51.4,38.8,29.96,West,268,4.0,7.0,62,0.00,,---,0.02,VWS V14.01,2013-10-30 05:14:00,
2013-10-29 22:19:00,51.4,38.8,29.96,WSW,256,3.0,7.0,62,0.00,,---,0.02,VWS V14.01,2013-10-30 05:19:00,
2013-10-29 22:24:00,51.0,38.9,29.96,WSW,256,5.0,7.0,63,0.00,,---,0.02,VWS V14.01,2013-10-30 05:24:00,
2013-10-29 22:29:00,50.8,38.7,29.96,West,259,3.0,3.0,63,0.00,,---,0.02,VWS V14.01,2013-10-30 05:29:00,
2013-10-29 22:34:00,50.7,38.6,29.96,West,263,2.0,6.0,63,0.00,,---,0.02,VWS V14.01,2013-10-30 05:34:00,
2013-10-29 22:39:00,50.7,38.6,29.96,SW,236,0.0,6.0,63,0.00,,---,0.02,VWS V14.01,2013-10-30 05:39:00,
2013-10-29 22:44:00,50.6,38.9,29.96,West,276,0.0,2.0,64,0.00,,---,0.02,VWS V14.01,2013-10-30 05:44:00,
2013-10-29 22:49:00,50.6,38.9,29.96,WSW,238,0.0,4.0,64,0.00,,---,0.02,VWS V14.01,2013-10-30 05:49:00,
2013-10-29 22:54:00,50.6,38.9,29.96,WSW,253,1.0,8.0,64,0.00,,---,0.02,VWS V14.01,2013-10-30 05:54:00,
2013-10-29 22:59:00,50.5,38.8,29.96,West,281,3.0,9.0,64,0.00,,---,0.02,VWS V14.01,2013-10-30 05:59:00,
2013-10-29 23:04:00,50.5,38.8,29.95,West,270,4.0,12.0,64,0.00,,---,0.02,VWS V14.01,2013-10-30 06:04:00,
2013-10-29 23:09:00,50.5,38.8,29.96,West,260,6.0,12.0,64,0.00,,---,0.02,VWS V14.01,2013-10-30 06:09:00,
2013-10-29 23:14:00,50.5,38.8,29.96,West,276,5.0,6.0,64,0.00,,---,0.02,VWS V14.01,2013-10-30 06:14:00,
2013-10-29 23:20:00,50.4,38.7,29.96,WSW,258,4.0,9.0,64,0.00,,---,0.02,VWS V14.01,2013-10-30 06:20:00,
2013-10-29 23:25:00,50.3,38.6,29.96,SSW,205,3.0,9.0,64,0.00,,---,0.02,VWS V14.01,2013-10-30 06:25:00,
2013-10-29 23:30:00,50.1,38.8,29.96,WSW,243,4.0,4.0,65,0.00,,---,0.02,VWS V14.01,2013-10-30 06:30:00,
2013-10-29 23:35:00,50.1,38.8,29.96,SW,216,2.0,6.0,65,0.00,,---,0.02,VWS V14.01,2013-10-30 06:35:00,
2013-10-29 23:40:00,50.0,38.7,29.96,WSW,249,1.0,7.0,65,0.00,,---,0.02,VWS V14.01,2013-10-30 06:40:00,
2013-10-29 23:45:00,49.9,38.6,29.96,SW,222,3.0,5.0,65,0.00,,---,0.02,VWS V14.01,2013-10-30 06:45:00,
2013-10-29 23:50:00,49.9,38.6,29.96,SW,231,2.0,5.0,65,0.00,,---,0.02,VWS V14.01,2013-10-30 06:50:00,
2013-10-29 23:55:00,49.9,38.2,29.96,SW,232,2.0,5.0,64,0.00,,---,0.02,VWS V14.01,2013-10-30 06:55:00,